Current Version              Previous Version:    01  02  03  04  05  06  07  08  09  10  11  12  13  14  15  16  17  18  19  20  21  22  23  24  25  26  27  28  29  30  
   31  32  33  34  35  36  37  38  39  40  41  42  43  44  45  46  47  48  49  50  51  52  53  54  55  56  57  58  59  60  

[Printable]
945
ASUS44 KEWX 210210
RWRTX
SOUTH TEXAS REGIONAL WEATHER ROUNDUP
NATIONAL WEATHER SERVICE AUSTIN/SAN ANTONIO TX
900 PM CDT SUN APR 20 2014

NOTE: "FAIR" INDICATED FEW OR NO CLOUDS BELOW 12,000 FEET WITH NO
SIGNIFICANT WEATHER AND/OR OBSTRUCTIONS TO VISIBILITY.

* - THESE STATIONS ARE NOT NWS OR FAA STATIONS...AND ARE NOT SUBJECT
    TO NWS AND FAA QUALITY CONTROL.

TXZ171-172-183>190-210300-
TEXAS HILL COUNTRY AND EDWARDS PLATEAU

CITY           SKY/WX    TMP DP  RH WIND       PRES   REMARKS
JUNCTION       CLOUDY    68  64  87 S5        30.05R
*LLANO         CLOUDY    70  63  78 CALM      30.08R
BURNET         CLOUDY    67  61  81 SE3       30.07R
*HORSESHOE BAY CLOUDY    69  60  73 S5        30.03S
*KERRVILLE     CLOUDY    64  62  95 CALM      30.07R
*FREDERICKSBRG CLOUDY    64  63  94 SE3       30.06S
*ROCKSPRINGS   CLOUDY    64  64 100 SE8       30.08R FOG
*BOERNE STAGE  CLOUDY    66  61  82 S3        30.06S
*CASTROVILLE   CLOUDY    73  61  67 S12       30.05R
HONDO          PTCLDY    71  64  78 SE3       30.05R
*UVALDE        MOCLDY    69  67  93 E5        30.04R
DEL RIO        CLEAR     72  66  81 E9        30.00R
LAUGHLIN AFB   CLEAR     69  66  91 E9        30.01R
CARRIZO SPRGS  CLOUDY    73  63  68 SE7       29.99R
$$

TXZ173-191>194-202-209-217>225-228-210300-
CENTRAL AND SOUTH CENTRAL TEXAS

CITY           SKY/WX    TMP DP  RH WIND       PRES   REMARKS
GEORGETOWN     CLEAR     70  57  64 SE6       30.03S
AUSTIN/BERGSTM CLOUDY    72  56  57 SE9       30.04R
AUSTIN/MABRY   CLOUDY    72  56  57 SE9       30.04S
*AUSTIN/EXEC   CLOUDY    72  57  60 SE7       30.05S
*LAGO VISTA    MOCLDY    68  61  77 CALM      30.06R
SAN MARCOS     CLOUDY    72  55  56 SE10      30.06R
NEW BRAUNFELS  CLOUDY    73  59  61 SE9       30.04R
RANDOLPH AFB   MOCLDY    73  60  65 SE8       30.05R
PT SAN ANTONIO CLOUDY    73  62  66 SE9       30.03R
SAN ANTONIO    CLOUDY    74  62  66 SE7       30.05R
STINSON FIELD  CLOUDY    74  62  66 SE8       30.02R
*PLEASANTON    CLOUDY    74  61  63 SE9G16    30.04R
*LA GRANGE     MOCLDY    72  59  64 S8        30.04S
*GIDDINGS      CLOUDY    70  56  60 S6        30.09R
*GONZALES      PTCLDY    69  61  74 SE5       30.05R
$$

TXZ163>164-176>182-195>201-210>213-226-227-235-210300-
SOUTHEAST TEXAS

CITY           SKY/WX    TMP DP  RH WIND       PRES   REMARKS
COLLEGE STN    CLOUDY    73  55  53 S8        30.06R
*BRYAN         CLOUDY    71  55  55 S3        30.05S
*CALDWELL      CLOUDY    72  52  49 S10       30.08S
*CROCKETT      CLEAR     73  57  56 SE6       30.09S
*BRENHAM       CLEAR     71  54  55 S6        30.07R
HUNTSVILLE     MOCLDY    72  52  49 CALM      30.07R
CONROE         CLOUDY    70  55  59 SE9       30.08R
HOUSTON BUSH   MOCLDY    70  56  61 S12       30.07S
HOUSTON HOBBY  PTCLDY    67  60  78 S7        30.08R
*HOUSTON SW AP CLEAR     65  60  83 SE7       30.09S
PEARLAND       CLEAR     68  60  75 S5        30.10R
HOUSTON HOOKS  CLOUDY    72  54  53 S6        30.07R
ELLINGTON FLD  PTCLDY    70  55  60 S6        30.10R
SUGAR LAND     CLOUDY    69  60  73 S9        30.08R
*HOUSTON EXEC  MOCLDY    70  57  64 SE9       30.08R
*CLEVELAND MUN CLEAR     66  56  68 S3        30.09R
*WHARTON       CLEAR     66  61  83 SE8       30.08S
$$

TXZ214>216-236>238-210300-
THE UPPER TEXAS COAST

CITY           SKY/WX    TMP DP  RH WIND       PRES   REMARKS
*ORANGE        CLEAR     68  58  71 S5        30.11R
PORT ARTHUR    CLEAR     64  56  75 SW6       30.09R
GALVESTON      CLEAR     67  64  90 SE10      30.11R
ANGLETON       CLEAR     66  62  87 SE5       30.09R
*BAY CITY      CLEAR     66  64  93 SE5       30.08S
PALACIOS       CLEAR     67  64  90 SE8       30.08R
$$

TXZ229>234-239>247-210300-
TEXAS COASTAL BEND AND RIO GRANDE PLAINS

CITY           SKY/WX    TMP DP  RH WIND       PRES   REMARKS
VICTORIA       CLEAR     69  62  78 SE14      30.06R
*BEEVILLE      CLOUDY    71  63  75 S14       30.05R
ROCKPORT       CLEAR     70  65  84 SE14      30.06R
*PORT ARANSAS  CLEAR     69  67  94 SE9       30.06R
*PORT LAVACA   CLEAR     67  63  86 SE8       30.07R
*INGLESIDE     PTCLDY    71  65  82 SE10      30.06R
CORPUS CHRISTI CLOUDY    72  64  76 SE13      30.05R
CORPUS NAS     CLEAR     70  66  87 SE15      30.06R
*ROBSTOWN      CLOUDY    73  65  75 SE13      30.06R
ALICE          CLOUDY    72  63  73 SE15      30.04R
KINGSVILLE NAS LGT RAIN  73  65  75 SE14      30.05R
COTULLA        CLOUDY    75  62  64 SE12      30.01R
*FAITH RANCH   MOCLDY    75  64  69 SE8       30.00R
LAREDO         CLOUDY    75  64  69 SE12      30.02R
$$

TXZ248>255-210300-
DEEP SOUTH TEXAS

CITY           SKY/WX    TMP DP  RH WIND       PRES   REMARKS
BROWNSVILLE    MOCLDY    72  66  81 SE10      30.05R
PORT ISABEL    CLOUDY    74  66  76 SE12      30.04R
*SOUTH PADRE   LGT RAIN N/A N/A N/A MISG      30.04R
HARLINGEN      CLOUDY    73  65  75 SE15      30.03R
*HEBBRONVILLE  CLOUDY    71  65  81 E10       30.05R
MCALLEN        CLOUDY    74  64  71 SE15      30.02R
*WESLACO       CLOUDY    74  63  69 SE13      30.03R
FALFURRIAS     CLOUDY    74  66  77 E6        30.04R
EDINBURG       CLOUDY    76  64  67 SE10G16   30.03R
*ZAPATA        CLOUDY    76  64  66 SE12      30.01R
$$

TXZ213>215-236>238-242>244-246-247-251-254-255-210300-
CMAN STATIONS

STATION/POSITION TIME  TEMP    WIND        PRES    WAVE
                       AIR SEA DIR/SP/G            HT/PER
                 (UTC) (F)     (DEG/KT/KT) (MB)    (FT/S)
SABINE PASS      0200   67 70  220/  4/  5 1019.0
SEA RIM ST PARK  0200   69     180/  6/  7 1019.6
NORTH JETTY/GLS  0200   68 72  160/  8/ 10   N/A
EAGLE POINT      0200   69 66  180/  8/ 10 1018.8
MORGANS POINT    0200   69 66  150/  4/  8   N/A
PORT O`CONNOR    0200          140/  9/ 11   N/A
PORT ARANSAS     0200   69 70  110/ 12/ 13 1018.0
MALAQUITE BEACH  0200   69 71  120/ 11/ 13 1016.9
BAFFIN BAY       0200   70 72  130/ 11/ 15 1017.5
PORT ISABEL      0200   72 71  130/ 13/ 18 1017.5
$$

GMZ080-GMZ150>470-210300-
OFFSHORE BUOY REPORTS

STATION/POSITION TIME  TEMP    WIND        PRES    WAVE
                       AIR SEA DIR/SP/G            HT/PER
                 (UTC) (F)     (DEG/KT/KT) (MB)    (FT/S)
20 E GALVESTON   0200   68 68  150/  4/  4 1019.0    1/ 5
35 NE PT MANSFLD 0200   69 69  120/ 10/ 12 1017.5    3/ 5
$$